{"data":{"norad_id":66426,"intl_designator":"2025-259E","name":"STARLINK-35589","alt_names":[],"object_type":"PAYLOAD","status":"ACTIVE","operator":null,"country":"US","launch_date":"2025-11-11","launch_site_code":"AFETR","launch_vehicle":null,"mission":null,"orbit_class":"UNKNOWN","rcs_meters":null,"size_class":null,"mass_kg":null,"dimensions":null,"purposes":["comms"],"wikipedia_slug":null,"has_3d_model":false,"image_url":null,"decayed_at":null,"tle_current":{"epoch":"2026-05-25T04:59:58.765056Z","epoch_age_seconds":47318,"freshness":"FRESH","line1":"1 66426U 25259E   26145.20831904  .00012614  00000+0  46691-3 0  9994","line2":"2 66426  42.9998 202.2368 0002677 288.4506  71.6054 15.27593675 31192","mean_motion":15.27593675,"eccentricity":0.0002677,"inclination_deg":42.9998,"raan_deg":202.2368,"arg_perigee_deg":288.4506,"mean_anomaly_deg":71.6054,"bstar":0.00046691,"rev_number":3119,"period_min":94.265904838864,"perigee_km":481.17141991932,"apogee_km":484.84487703182,"semimajor_km":6861.1451484756,"source":"CELESTRAK","updated_at":"2026-05-25T13:38:21.207480Z"}}}